Location: Berlise
(49.6641°N, 4.1077°E)
Time: 19:59:51
(UTC+00:00)

ERS-2 - Pass Details

Date: 27 January 2021
Orbit: 492 x 497 km, 98.6° (Epoch: 27 February)

Event Time Altitude Azimuth Distance (km) Brightness Sun altitude
Rises 05:19:14 0° 174° (S) 2,572 5.9 -19.8°
Reaches altitude 10° 05:21:20 10° 179° (S) 1,693 4.9 -19.5°
Maximum altitude 05:24:54 55° 258° (WSW) 603 2.1 -18.9°
Enters shadow 05:25:03 55° 269° (W) 606 2.1 -18.9°
